Weather History for Frederick, OK

Change the Weather History Date:

Sunday, June 16, 2013

  Actual Average (KLTS) Record (KLTS)
Temperature  
Mean Temperature 84 °F -  
Max Temperature 98 °F 89 °F 106 °F (2011)
Min Temperature 71 °F 66 °F 59 °F (1998)
Cooling Degree Days 19    
Growing Degree Days 34 (Base 50)    
Moisture  
Dew Point 67 °F    
Average Humidity 61    
Maximum Humidity 91    
Minimum Humidity 32    
Precipitation  
Precipitation 0.17 in - - ()
Sea Level Pressure  
Sea Level Pressure 29.86 in    
Wind  
Wind Speed 10 mph (SSE)    
Max Wind Speed 22 mph    
Max Gust Speed 31 mph    
Visibility 10 miles    
Events Rain , Thunderstorm    
Averages and records for this station are not official NWS values.
T = Trace of Precipitation, MM = Missing Value Source: NWS Daily Summary

Daily Weather History Graph

Daily Weather History Graph

Search for Another Location

Airport:

Trip Planner

Search our weather history database for the weather conditions in past years. The results will help you decide how hot, cold, wet, or windy it might be!

Date:

Astronomy

Jun. 16, 2013 Rise Set
Actual Time 6:23 AM CDT 8:50 PM CDT
Civil Twilight 5:54 AM CDT 9:19 PM CDT
Nautical Twilight 5:17 AM CDT 9:55 PM CDT
Astronomical Twilight 4:38 AM CDT 10:35 PM CDT
Moon 1:42 PM CDT (6/16) 1:12 AM CDT (6/16)
Length of Visible Light 15h 25m
Length of Day
14h 26m
Waxing Crescent, 50% of the Moon is Illuminated
Jun 16
Waxing Crescent
Jun 16
First Quarter
Jun 23
Full
Jun 29
Last Quarter
Jul 8
New

Hourly Weather History & Observations

Time (CDT) Temp. Heat Index Dew Point Humidity Pressure Visibility Wind Dir Wind Speed Gust Speed Precip Events Conditions
12:53 AM 77.0 °F - 64.0 °F 64% 29.87 in 10.0 mi SSE 11.5 mph - N/A   Scattered Clouds
1:53 AM 73.9 °F - 64.0 °F 71% 29.85 in 10.0 mi SSE 9.2 mph - N/A   Clear
2:53 AM 73.9 °F - 66.9 °F 79% 29.85 in 10.0 mi SSE 8.1 mph - N/A   Clear
3:53 AM 72.0 °F - 68.0 °F 87% 29.88 in 10.0 mi East 5.8 mph - N/A   Clear
4:53 AM 72.0 °F - 69.1 °F 91% 29.88 in 10.0 mi SE 6.9 mph - N/A   Clear
5:53 AM 71.1 °F - 68.0 °F 90% 29.89 in 10.0 mi SSE 3.5 mph - N/A   Clear
6:53 AM 71.1 °F - 68.0 °F 90% 29.94 in 7.0 mi NNE 9.2 mph - N/A   Clear
7:53 AM 73.0 °F - 70.0 °F 90% 29.96 in 7.0 mi NE 5.8 mph - N/A   Overcast
8:53 AM 77.0 °F - 70.0 °F 79% 29.95 in 10.0 mi SSE 8.1 mph - N/A   Overcast
9:53 AM 82.9 °F 86.5 °F 69.1 °F 63% 29.94 in 10.0 mi Variable 5.8 mph - N/A   Mostly Cloudy
10:53 AM 88.0 °F 91.4 °F 68.0 °F 51% 29.92 in 10.0 mi WSW 10.4 mph - N/A   Clear
11:53 AM 89.1 °F 92.1 °F 66.9 °F 48% 29.90 in 10.0 mi SW 12.7 mph 19.6 mph N/A   Scattered Clouds
12:53 PM 91.9 °F 95.4 °F 66.9 °F 44% 29.88 in 10.0 mi South 17.3 mph 23.0 mph N/A   Clear
1:53 PM 93.0 °F 95.9 °F 66.0 °F 41% 29.86 in 10.0 mi SSW 16.1 mph 20.7 mph N/A   Scattered Clouds
2:53 PM 93.0 °F 95.9 °F 66.0 °F 41% 29.84 in 10.0 mi SSW 10.4 mph 18.4 mph N/A   Scattered Clouds
3:53 PM 96.1 °F 99.3 °F 66.0 °F 37% 29.83 in 10.0 mi SW 12.7 mph 23.0 mph N/A   Partly Cloudy
4:53 PM 96.1 °F 98.8 °F 64.9 °F 36% 29.81 in 10.0 mi South 13.8 mph - N/A   Scattered Clouds
5:53 PM 97.0 °F 98.3 °F 63.0 °F 32% 29.78 in 10.0 mi SSW 15.0 mph - N/A   Clear
6:53 PM 96.1 °F 98.3 °F 64.0 °F 35% 29.77 in 10.0 mi SSW 9.2 mph - N/A   Clear
7:53 PM 93.9 °F 95.6 °F 64.0 °F 37% 29.77 in 10.0 mi SSE 6.9 mph - N/A   Partly Cloudy
8:53 PM 90.0 °F 92.4 °F 66.0 °F 45% 29.79 in 10.0 mi SSE 6.9 mph - N/A   Scattered Clouds
9:43 PM 89.6 °F 92.2 °F 66.2 °F 46% 29.85 in 10.0 mi SE 10.4 mph - N/A Thunderstorm Scattered Clouds
9:53 PM 88.0 °F 90.7 °F 66.9 °F 49% 29.80 in 9.0 mi ESE 15.0 mph - 0.01 in Thunderstorm Mostly Cloudy
10:05 PM 82.4 °F 86.3 °F 69.8 °F 66% 29.86 in 8.0 mi ESE 11.5 mph - 0.04 in Rain Rain
10:12 PM 80.6 °F 84.6 °F 71.6 °F 74% 29.85 in 9.0 mi ESE 11.5 mph - 0.05 in Rain , Thunderstorm Light Thunderstorms and Rain
10:27 PM 78.8 °F - 71.6 °F 78% 29.87 in 5.0 mi East 21.9 mph 31.1 mph 0.15 in Rain Rain
10:53 PM 75.0 °F - 66.0 °F 73% 29.83 in 10.0 mi East 15.0 mph - 0.16 in   Scattered Clouds
11:42 PM 78.8 °F - 68.0 °F 69% 29.87 in 10.0 mi SE 15.0 mph - N/A Thunderstorm Scattered Clouds
11:53 PM 78.1 °F - 69.1 °F 74% 29.81 in 10.0 mi SE 13.8 mph - N/A Thunderstorm Partly Cloudy